Flag for Pakistan Weather past 2 weeks in Khushab, Pakistan

Now
93 °F

Scattered clouds.


Feels Like: 96 °F
Forecast: 84 / 104 °F
Wind: 23 mph from Southeast

Location: Islamabad Airport

Current Time: Jul 1, 2015 at 5:52:10 PM

Latest Report: Jul 1, 2015 at 5:00 PM


Visibility: 4 mi

Pressure: 29.65 "Hg

Humidity: 41%

Dew point: 66 °F

Location of KhushabLocation

Historic Weather in Khushab — Graph

°F

Khushab temperature yesterday

Maximum temperature yesterday: 93 °F (at 2:00 PM)
Minimum temperature yesterday: 73 °F (at 12:00 AM)
Average temperature yesterday: 84 °F

Past Weeks' High & Low Weather Summary

 TemperatureHumidityPressure
High147 °F (Jun 21, 7:00 AM)94% (Jun 24, 11:00 AM)29.77 "Hg (Jun 24, 11:00 AM)
Low66 °F (Jun 24, 11:00 AM)8% (Jun 21, 7:00 AM)29.45 "Hg (Jun 20, 6:00 PM)
Average89 °F47%29.58 "Hg
* Reported Jun 16 5:00 PM — Jul 1 4:00 PM, Khushab, Weather by CustomWeather, © 2015

Note: Actual official high and low records may vary slightly from our data, if they occured in-between our weather recording intervals... More about our weather records

Advertising

Khushab weather history for previous 24 hours

 ConditionsComfort  
Time TempWeatherWind HumidityBarometerVisibility
4:00 PM
Wed, Jul 1
97 °FScattered clouds.16 mph34%29.65 "Hg4 mi
3:00 PM97 °FScattered clouds.18 mph34%29.65 "Hg4 mi
2:00 PM95 °FScattered clouds.12 mph39%29.68 "Hg4 mi
1:00 PM95 °FScattered clouds.9 mph39%29.71 "Hg4 mi
12:00 PM93 °FScattered clouds.9 mph44%29.71 "Hg4 mi
11:00 AM91 °FScattered clouds.7 mph44%29.74 "Hg4 mi
10:00 AM90 °FScattered clouds.14 mph41%29.74 "Hg4 mi
9:00 AM70 °FScattered clouds.5 mph78%29.74 "Hg4 mi
8:00 AM84 °FScattered clouds.9 mph51%29.71 "Hg4 mi
7:00 AM81 °FScattered clouds.9 mph58%29.71 "Hg4 mi
6:00 AM81 °FScattered clouds.9 mph58%29.71 "Hg4 mi
5:00 AM79 °FScattered clouds.16 mph65%29.68 "Hg4 mi
4:00 AM79 °FThundershowers. Passing clouds.9 mph65%29.68 "Hg4 mi
3:00 AM81 °FThundershowers. Passing clouds.9 mph62%29.68 "Hg4 mi
2:00 AM81 °FPassing clouds.9 mph62%29.71 "Hg4 mi
1:00 AM82 °FPassing clouds.9 mph58%29.71 "Hg4 mi
12:00 AM82 °FPassing clouds.9 mph58%29.71 "Hg4 mi
11:00 PM
Tue, Jun 30
84 °FPassing clouds.9 mph55%29.74 "Hg5 mi
10:00 PM84 °FPassing clouds.5 mph55%29.71 "Hg5 mi
9:00 PM86 °FPassing clouds.5 mph52%29.71 "Hg5 mi
8:00 PM88 °FPassing clouds.9 mph49%29.68 "Hg5 mi
7:00 PM90 °FPassing clouds.9 mph46%29.68 "Hg5 mi
6:00 PM91 °FPassing clouds.12 mph44%29.68 "HgN/A
5:00 PM91 °FPassing clouds.9 mph41%29.68 "HgN/A
Weather by CustomWeather, © 2015

See weather overviewHow to use our weather pages